Weather History for KDMO - January, 2013

Change the Weather History Date:

Wednesday, January 2, 2013

  Actual Average Record
Temperature  
Mean Temperature 21 °F 32 °F  
Max Temperature 33 °F 40 °F - ()
Min Temperature 8 °F 23 °F - ()
Degree Days  
Heating Degree Days 44 33  
Month to date heating degree days 91 66  
Since 1 July heating degree days 1755 1847  
Cooling Degree Days 0 0  
Month to date cooling degree days 0 0  
Year to date cooling degree days 0 0  
Moisture  
Dew Point 14 °F    
Average Humidity 72    
Maximum Humidity 92    
Minimum Humidity 51    
Precipitation  
Precipitation 0.00 in 0.05 in - ()
Month to date precipitation 0.00 0.10  
Year to date precipitation 0.00 0.10  
Sea Level Pressure  
Sea Level Pressure 30.24 in    
Wind  
Wind Speed 9 mph (SW)    
Max Wind Speed 17 mph    
Max Gust Speed 21 mph    
Visibility 10 miles    
Events      
T = Trace of Precipitation, MM = Missing Value Source: NWS Daily Summary

Daily Weather History Graph

Daily Weather History Graph

Search for Another Location

Airport or City:

Trip Planner

Search our weather history database for the weather conditions in past years. The results will help you decide how hot, cold, wet, or windy it might be!

Date:

Astronomy

Jan. 02, 2013 Rise Set
Actual Time 7:30 AM CST 5:03 PM CST
Civil Twilight 7:01 AM CST 5:32 PM CST
Nautical Twilight 6:28 AM CST 6:06 PM CST
Astronomical Twilight 5:55 AM CST 6:38 PM CST
Moon 10:32 PM CST (1/2) 10:16 AM CST (1/2)
Length of Visible Light 10h 31m
Length of Day
9h 32m
Waning Gibbous, 75% of the Moon is Illuminated
Jan 2
Waning Gibbous
Jan 4
Last Quarter
Jan 11
New
Jan 18
First Quarter
Jan 26
Full

Hourly Weather History & Observations

Time (CST) Temp. Windchill Dew Point Humidity Pressure Visibility Wind Dir Wind Speed Gust Speed Precip Events Conditions
12:53 AM 12.9 °F 2.6 °F 8.1 °F 81% 30.28 in 10.0 mi WSW 6.9 mph - N/A   Clear
1:53 AM 12.0 °F 1.5 °F 9.0 °F 88% 30.29 in 10.0 mi SW 6.9 mph - N/A   Clear
2:53 AM 10.9 °F 1.4 °F 7.0 °F 84% 30.29 in 10.0 mi SSW 5.8 mph - N/A   Clear
3:53 AM 10.0 °F 1.8 °F 5.0 °F 80% 30.27 in 10.0 mi SSW 4.6 mph - N/A   Clear
4:53 AM 12.0 °F 1.5 °F 7.0 °F 80% 30.27 in 10.0 mi SW 6.9 mph - N/A   Clear
5:53 AM 12.0 °F 0.5 °F 7.0 °F 80% 30.27 in 10.0 mi SW 8.1 mph - N/A   Clear
6:53 AM 14.0 °F 0.5 °F 9.0 °F 80% 30.25 in 10.0 mi SSW 11.5 mph - N/A   Clear
7:53 AM 15.1 °F 2.5 °F 9.0 °F 77% 30.25 in 10.0 mi SW 10.4 mph - N/A   Clear
8:53 AM 17.1 °F 4.3 °F 10.9 °F 77% 30.25 in 10.0 mi SSW 11.5 mph - N/A   Clear
9:53 AM 21.0 °F 7.6 °F 12.0 °F 68% 30.27 in 10.0 mi SW 15.0 mph - N/A   Clear
10:53 AM 24.1 °F 15.2 °F 14.0 °F 65% 30.26 in 10.0 mi SSW 8.1 mph - N/A   Clear
11:53 AM 26.1 °F 16.8 °F 14.0 °F 60% 30.24 in 10.0 mi WSW 9.2 mph 18.4 mph N/A   Clear
12:53 PM 28.9 °F 19.2 °F 16.0 °F 58% 30.21 in 10.0 mi SSW 11.5 mph - N/A   Clear
1:53 PM 30.9 °F 22.8 °F 17.1 °F 57% 30.18 in 10.0 mi SSW 9.2 mph - N/A   Clear
2:53 PM 32.0 °F 23.0 °F 19.0 °F 59% 30.19 in 10.0 mi SSW 11.5 mph - N/A   Clear
3:53 PM 33.1 °F 24.9 °F 18.0 °F 54% 30.19 in 10.0 mi SW 10.4 mph - N/A   Clear
4:53 PM 30.9 °F 22.8 °F 18.0 °F 59% 30.19 in 10.0 mi SSW 9.2 mph - N/A   Clear
5:53 PM 30.0 °F 22.4 °F 19.0 °F 64% 30.21 in 10.0 mi SW 8.1 mph - N/A   Mostly Cloudy
6:53 PM 30.9 °F 22.2 °F 19.9 °F 64% 30.22 in 10.0 mi SW 10.4 mph - N/A   Overcast
7:53 PM 30.9 °F 24.3 °F 21.0 °F 67% 30.24 in 10.0 mi WSW 6.9 mph - N/A   Overcast
8:53 PM 30.0 °F 24.1 °F 21.9 °F 72% 30.24 in 10.0 mi WSW 5.8 mph - N/A   Overcast
9:53 PM 28.9 °F 22.8 °F 23.0 °F 78% 30.26 in 10.0 mi WSW 5.8 mph - N/A   Clear
10:53 PM 28.0 °F 21.7 °F 21.9 °F 78% 30.27 in 10.0 mi West 5.8 mph - N/A   Mostly Cloudy
11:53 PM 26.1 °F 20.5 °F 19.9 °F 78% 30.28 in 9.0 mi WSW 4.6 mph - N/A   Clear